Wind_Speed
35 35 35 35 36 37 38 40 41 43 44 45 46 46 47 47 47 46 45 44 41 38 35 36 35 34 33 33 33 31 29 27 26 25 24 23 23 22 22 22 21 21 20
33 34 34 34 34 35 36 37 38 40 41 43 45 46 46 47 48 47 46 44 43 41 40 37 36 36 35 33 33 32 31 30 29 27 26 25 25 25 24 24 23 23 22
29 30 31 31 32 32 32 33 35 36 37 39 40 42 44 46 46 46 45 45 44 44 42 39 37 36 34 34 35 34 33 32 31 30 27 27 27 26 25 25 25 25 24
26 27 27 28 28 29 31 32 32 32 33 33 35 37 40 42 44 44 44 45 45 44 44 42 40 39 37 35 34 35 34 33 33 32 30 29 29 27 26 26 26 26 26
24 24 25 25 25 26 27 28 28 28 28 28 29 31 34 37 39 41 42 43 43 42 42 42 42 40 39 38 35 33 35 35 34 33 32 30 29 28 27 27 27 27 27
22 22 22 22 22 22 22 22 22 23 23 24 25 27 28 31 34 36 39 40 40 40 40 39 39 39 36 35 36 34 34 35 34 33 33 32 30 29 28 28 28 27 27
21 20 20 20 20 18 18 18 18 18 18 19 20 21 23 25 27 30 33 35 37 37 37 37 37 37 37 35 36 36 34 34 34 33 32 32 31 30 28 28 29 28 28
19 19 19 19 19 17 16 16 15 14 13 14 15 15 16 17 19 22 25 28 31 33 34 35 35 35 35 35 36 37 35 35 34 34 33 32 33 32 30 28 29 28 28
20 20 20 19 19 18 17 15 15 13 12 11 11 12 11 12 14 16 19 22 25 26 29 32 32 33 34 34 34 35 35 35 35 35 35 33 33 32 31 31 30 29 28
21 21 20 20 20 19 18 17 16 15 14 12 11 11 10 8 9 11 13 16 20 22 24 27 29 31 32 33 34 33 33 34 34 34 33 33 33 33 32 31 31 30 30
21 21 20 21 21 20 20 19 18 17 16 15 14 13 11 9 7 5 7 10 13 16 19 23 25 27 29 31 32 33 34 34 34 34 34 34 33 33 33 32 32 31 30
21 21 22 22 22 21 21 21 21 19 18 18 17 16 14 12 9 7 6 6 7 11 15 17 20 23 25 27 30 31 32 33 33 34 34 34 34 34 33 32 32 31 30
20 21 21 22 22 22 22 22 22 22 21 20 19 18 17 15 12 9 8 7 7 7 9 12 15 19 21 24 27 27 27 29 31 32 32 32 33 34 33 32 32 32 31
20 20 21 21 22 22 23 22 23 23 22 21 20 19 18 17 16 13 11 9 8 7 7 9 11 15 17 20 22 24 26 27 28 29 30 30 31 32 32 31 31 31 31
20 20 20 21 21 22 22 22 22 22 22 22 22 21 19 18 17 16 14 12 10 9 8 8 9 12 14 16 18 20 22 23 25 26 27 27 28 29 30 29 28 29 28
20 20 21 21 22 22 22 22 22 22 22 22 22 21 21 20 19 17 16 15 13 11 10 10 10 11 12 13 15 17 19 20 22 23 25 26 26 26 26 26 27 26 26
20 20 21 21 22 22 22 23 23 22 22 22 22 22 21 21 20 19 18 17 15 13 12 10 9 9 10 11 13 14 16 18 19 21 22 24 24 24 24 24 24 23 23
19 20 20 20 21 22 23 23 23 23 22 22 22 22 22 23 22 21 20 19 18 15 13 11 9 8 8 9 10 12 14 15 16 17 18 20 21 22 21 20 21 21 20
19 19 19 19 20 21 22 22 23 23 23 23 23 24 24 24 24 23 22 21 19 17 15 12 10 8 7 7 8 9 11 12 13 14 16 17 18 20 20 19 19 19 19
19 18 18 18 19 20 20 21 22 22 23 23 24 24 25 25 25 24 23 22 21 19 16 13 11 9 7 6 5 6 7 9 10 11 13 14 16 16 16 17 17 18 18
18 18 18 18 18 19 20 21 22 22 23 23 24 24 25 26 26 25 24 23 22 21 18 16 13 11 9 6 3 2 4 5 8 9 12 13 14 14 14 14 14 15 16
17 17 17 17 18 18 19 20 21 22 22 23 24 24 25 26 26 26 25 24 24 22 20 18 15 13 11 8 6 2 1 4 7 9 10 11 12 13 14 14 14 14 14
16 17 17 17 17 18 19 19 20 21 21 22 23 24 25 25 26 26 25 24 24 23 21 20 18 15 13 12 9 6 4 4 6 8 9 10 11 11 13 13 14 15 14
16 16 16 16 16 17 18 19 20 20 21 22 22 23 24 25 26 26 25 24 24 24 23 21 20 18 16 14 13 11 9 8 8 9 10 11 12 12 13 14 14 14 13
15 15 15 15 15 16 17 18 18 19 20 20 21 22 23 24 24 25 25 24 24 24 23 22 21 19 18 16 16 15 13 13 12 12 12 12 13 13 13 13 13 12 12
14 14 14 14 14 15 15 16 17 17 18 19 20 21 22 22 23 24 24 24 24 23 23 22 22 21 20 19 18 17 17 16 15 14 13 13 13 13 12 12 12 11 11
Wind_Direction
293 291 288 285 282 280 278 276 274 272 270 268 267 266 265 264 264 263 261 262 261 259 258 257 255 250 249 248 244 240 239 238 239 240 240 241 242 243 244 243 242 242 242
295 294 291 288 285 283 282 279 276 273 271 269 267 266 264 263 263 264 263 261 261 260 258 258 258 255 252 249 246 241 238 236 236 239 239 240 242 242 243 245 246 246 246
300 298 295 292 289 287 285 283 280 277 274 271 268 265 263 262 262 261 260 259 259 259 259 259 256 255 254 249 245 241 238 238 237 237 237 238 239 241 242 246 248 249 249
308 305 301 297 294 291 290 288 286 282 278 273 269 266 263 261 259 258 257 257 258 259 258 257 254 253 253 250 248 244 239 237 235 235 237 238 238 240 243 247 248 250 251
316 314 310 306 301 299 297 293 290 286 282 278 273 270 265 261 259 257 255 255 255 255 256 256 254 253 255 252 249 244 242 239 237 237 237 237 238 241 243 246 248 250 252
328 325 323 321 315 309 305 301 295 291 287 283 279 276 269 262 259 256 252 251 251 251 251 253 252 251 249 249 249 244 242 241 239 238 238 238 239 240 241 244 247 250 251
342 340 339 338 333 326 322 316 308 301 295 292 287 282 275 266 261 256 250 248 248 247 247 247 248 248 245 244 245 243 241 241 240 238 239 239 238 240 241 243 247 249 251
356 354 354 355 355 351 346 342 336 324 316 308 301 295 286 275 265 257 250 246 245 245 244 242 242 242 242 242 243 243 242 242 240 239 240 241 241 241 241 243 247 250 252
6 5 6 5 5 4 1 0 358 352 343 334 329 323 309 292 273 260 253 247 245 244 242 239 239 240 239 238 238 239 240 241 241 239 240 240 241 241 242 244 246 249 252
13 13 13 13 13 14 14 13 13 12 10 6 358 351 344 325 288 263 260 253 247 243 242 239 236 236 236 235 235 236 236 239 239 239 240 240 241 244 245 246 247 250 253
18 18 19 19 20 21 22 22 22 21 20 18 16 14 6 360 350 302 276 266 253 245 242 239 238 238 238 237 237 237 237 239 240 239 240 240 240 242 244 246 247 248 251
21 25 27 26 26 28 29 29 29 29 28 27 25 24 23 21 13 359 342 313 278 259 248 244 240 237 239 238 237 236 236 238 239 239 239 240 242 242 244 246 248 250 252
24 26 27 28 29 31 32 32 32 32 31 28 26 26 26 24 17 7 355 339 314 287 266 259 249 244 241 240 238 237 236 237 239 240 241 242 242 243 245 247 249 252 254
25 26 28 29 30 31 31 31 30 30 30 29 28 27 25 24 21 15 7 355 338 313 290 276 261 252 248 245 241 240 239 239 239 240 242 242 243 245 247 249 250 251 253
24 25 26 26 26 27 27 27 28 28 29 28 28 27 25 22 18 15 11 3 353 338 315 298 281 264 257 251 247 244 243 243 242 242 243 243 244 246 247 248 249 249 251
23 25 24 24 24 23 24 24 24 25 25 26 26 24 23 20 16 13 7 360 352 341 328 312 296 280 269 260 253 248 246 245 244 244 243 243 243 243 244 245 247 248 250
21 22 23 24 24 24 24 24 24 24 24 23 23 22 21 18 15 11 6 1 355 346 336 323 307 293 280 268 258 252 247 244 243 244 243 240 239 239 240 242 241 242 243
18 18 19 21 23 24 24 24 24 23 23 22 20 19 17 15 13 11 7 4 1 356 347 336 322 308 294 280 266 256 249 247 245 241 238 237 235 236 238 238 236 233 233
16 17 18 19 20 21 22 22 23 23 22 21 20 18 16 14 13 11 9 7 6 3 359 352 343 327 308 290 276 261 251 247 246 241 234 231 229 230 230 228 225 224 221
14 15 17 17 18 18 19 20 20 20 20 19 18 18 17 15 14 13 12 12 12 12 11 8 2 355 338 316 289 266 249 242 237 230 225 223 222 220 217 218 218 215 208
12 14 15 16 17 17 17 18 18 18 18 17 17 16 16 16 16 16 17 17 17 18 18 18 16 13 5 2 346 286 237 227 219 211 210 210 207 203 200 199 201 201 196
8 11 13 14 15 15 15 16 16 16 17 17 17 16 16 17 18 19 20 22 23 24 25 25 25 24 25 26 21 27 195 210 203 197 195 192 193 192 189 185 184 182 183
4 6 8 11 12 13 13 14 15 15 16 17 18 18 18 18 20 22 23 25 27 28 30 30 31 33 37 39 43 56 86 138 167 173 177 174 174 171 172 173 172 171 174
359 1 3 5 7 9 11 13 15 16 16 17 18 19 20 21 22 24 26 28 30 32 33 35 36 39 43 47 54 62 76 97 116 135 146 150 154 157 160 158 159 163 165
350 353 355 358 0 3 6 9 12 14 16 17 19 20 21 22 24 26 27 30 31 33 35 38 40 43 47 52 58 64 76 91 101 112 125 133 140 146 150 151 154 158 163
340 344 347 350 352 355 358 2 6 10 12 15 18 20 21 23 25 27 29 31 33 35 37 40 44 47 52 56 62 67 78 87 93 101 112 123 130 134 139 146 152 156 157
Height
5842 5840 5837 5835 5833 5832 5830 5829 5829 5828 5828 5829 5829 5831 5832 5834 5836 5838 5841 5844 5847 5849 5852 5855 5857 5860 5863 5866 5869 5872 5874 5877 5880 5882 5885 5887 5889 5891 5892 5894 5896 5898 5900
5835 5831 5829 5826 5824 5822 5820 5819 5818 5817 5817 5817 5817 5819 5820 5823 5825 5828 5831 5834 5837 5840 5844 5847 5850 5852 5856 5859 5861 5864 5867 5870 5873 5876 5879 5881 5884 5885 5887 5889 5891 5893 5895
5828 5824 5821 5818 5816 5814 5811 5809 5808 5806 5806 5805 5806 5807 5808 5810 5813 5816 5820 5823 5827 5831 5834 5838 5841 5844 5847 5851 5854 5857 5860 5863 5866 5869 5872 5875 5877 5879 5882 5884 5886 5888 5890
5822 5818 5815 5811 5808 5806 5803 5800 5798 5797 5795 5795 5795 5796 5797 5799 5801 5804 5808 5812 5816 5820 5824 5828 5832 5836 5839 5843 5846 5849 5853 5856 5859 5862 5865 5868 5871 5874 5876 5878 5880 5882 5884
5817 5813 5810 5806 5802 5799 5796 5793 5790 5788 5787 5786 5786 5786 5786 5788 5790 5793 5796 5800 5804 5809 5814 5818 5823 5826 5830 5834 5838 5841 5845 5848 5851 5855 5858 5861 5864 5867 5870 5872 5874 5876 5878
5814 5810 5805 5801 5797 5793 5790 5787 5784 5782 5780 5779 5778 5777 5777 5778 5780 5782 5785 5789 5794 5798 5803 5808 5812 5817 5821 5825 5829 5833 5836 5840 5843 5847 5850 5853 5856 5859 5862 5864 5867 5869 5871
5812 5807 5803 5798 5794 5789 5786 5782 5779 5777 5775 5773 5772 5771 5770 5770 5771 5773 5776 5780 5784 5788 5792 5798 5803 5807 5812 5816 5820 5825 5828 5832 5835 5839 5842 5846 5849 5851 5854 5857 5859 5862 5864
5812 5807 5802 5797 5793 5788 5784 5780 5777 5774 5771 5769 5768 5766 5765 5764 5765 5766 5768 5771 5775 5779 5783 5788 5793 5797 5802 5807 5811 5816 5819 5823 5827 5830 5834 5837 5840 5843 5846 5849 5852 5854 5857
5812 5807 5803 5798 5793 5789 5784 5780 5776 5773 5770 5768 5766 5764 5761 5760 5760 5761 5762 5765 5768 5771 5775 5779 5784 5788 5793 5798 5802 5806 5810 5814 5818 5821 5825 5828 5832 5835 5839 5842 5845 5848 5849
5814 5809 5804 5799 5795 5790 5786 5781 5777 5774 5770 5767 5765 5763 5760 5758 5758 5758 5759 5760 5762 5765 5768 5771 5776 5780 5784 5788 5793 5797 5801 5805 5809 5812 5816 5820 5823 5827 5830 5833 5836 5839 5842
5816 5811 5806 5802 5797 5792 5788 5783 5779 5776 5772 5769 5766 5763 5760 5758 5757 5757 5757 5757 5759 5761 5763 5766 5769 5773 5777 5781 5785 5789 5792 5796 5800 5804 5808 5811 5815 5818 5822 5825 5828 5830 5833
5819 5814 5809 5805 5800 5795 5791 5787 5782 5778 5775 5772 5768 5765 5762 5760 5759 5757 5757 5757 5758 5759 5760 5761 5764 5767 5770 5774 5777 5781 5784 5788 5792 5796 5799 5803 5806 5810 5813 5816 5819 5822 5825
5821 5817 5813 5808 5804 5799 5795 5790 5786 5782 5778 5775 5772 5768 5765 5763 5761 5759 5758 5757 5757 5757 5758 5758 5760 5762 5764 5767 5770 5773 5777 5780 5783 5787 5791 5794 5797 5801 5804 5807 5810 5813 5816
5825 5820 5816 5812 5808 5803 5799 5794 5790 5786 5782 5778 5775 5772 5768 5766 5763 5761 5759 5758 5757 5756 5755 5756 5756 5758 5759 5761 5764 5766 5769 5772 5776 5779 5782 5785 5789 5792 5795 5799 5802 5805 5808
5828 5824 5819 5815 5811 5807 5802 5798 5794 5790 5786 5782 5778 5775 5772 5769 5766 5763 5760 5758 5756 5755 5754 5753 5753 5754 5755 5756 5758 5760 5762 5765 5768 5771 5774 5778 5781 5784 5788 5791 5794 5798 5801
5831 5827 5823 5818 5814 5810 5806 5801 5797 5793 5789 5786 5782 5778 5774 5771 5768 5764 5761 5758 5756 5754 5752 5751 5750 5750 5750 5751 5752 5754 5756 5759 5762 5765 5768 5771 5774 5777 5780 5784 5787 5791 5794
5833 5830 5826 5822 5817 5813 5809 5805 5801 5797 5793 5789 5785 5781 5777 5773 5769 5766 5762 5758 5755 5752 5750 5748 5747 5746 5746 5747 5748 5749 5751 5754 5756 5759 5761 5764 5768 5771 5774 5777 5781 5784 5787
5836 5832 5828 5824 5821 5817 5812 5808 5804 5800 5796 5792 5788 5783 5779 5775 5771 5766 5762 5758 5754 5751 5748 5745 5744 5743 5742 5743 5743 5745 5746 5748 5750 5753 5756 5759 5762 5765 5769 5772 5776 5779 5782
5838 5835 5831 5827 5824 5820 5816 5811 5807 5803 5799 5795 5790 5786 5781 5777 5772 5767 5762 5758 5754 5750 5746 5743 5741 5740 5739 5739 5739 5740 5741 5743 5745 5747 5750 5753 5756 5760 5764 5768 5771 5774 5778
5841 5837 5833 5830 5826 5822 5819 5815 5811 5806 5802 5798 5793 5788 5783 5779 5774 5768 5763 5758 5754 5749 5745 5742 5740 5738 5737 5736 5736 5737 5738 5739 5741 5743 5746 5749 5752 5756 5760 5764 5767 5771 5774
5843 5839 5836 5832 5829 5825 5821 5817 5813 5809 5805 5800 5796 5791 5786 5781 5775 5770 5764 5759 5755 5750 5746 5743 5740 5738 5736 5735 5735 5735 5735 5736 5738 5741 5743 5746 5750 5754 5757 5761 5765 5768 5772
5844 5841 5838 5834 5831 5827 5824 5820 5816 5812 5807 5803 5798 5793 5789 5784 5778 5772 5767 5762 5757 5753 5749 5745 5742 5740 5737 5735 5734 5734 5734 5735 5737 5739 5742 5745 5748 5752 5755 5759 5763 5767 5771
5846 5843 5839 5836 5833 5829 5826 5822 5818 5814 5810 5805 5801 5796 5792 5787 5781 5776 5771 5766 5761 5757 5753 5749 5745 5742 5740 5738 5736 5735 5735 5735 5737 5739 5741 5744 5748 5751 5755 5758 5762 5766 5770
5847 5844 5841 5837 5834 5831 5827 5824 5820 5816 5812 5808 5804 5799 5795 5790 5785 5780 5775 5770 5766 5761 5757 5753 5750 5746 5744 5741 5739 5738 5737 5738 5739 5740 5743 5746 5749 5752 5756 5759 5763 5767 5770
5847 5844 5841 5838 5835 5832 5829 5825 5822 5818 5815 5811 5807 5802 5798 5793 5789 5784 5780 5775 5771 5766 5762 5758 5754 5751 5748 5746 5744 5742 5741 5742 5742 5744 5746 5748 5751 5755 5758 5761 5764 5768 5771
5847 5844 5841 5838 5836 5833 5830 5827 5823 5820 5817 5813 5809 5805 5801 5797 5793 5788 5784 5780 5775 5771 5767 5763 5760 5756 5753 5751 5749 5748 5747 5747 5748 5749 5750 5752 5755 5757 5760 5763 5766 5769 5772